Temp
54 48 42 47 49 44 41 40 38 44 49 41 42 45 44 52 52 50 52 47 50 52 53 55 59 63 64 64 66 68 69 70 68 67 65 64 63 68 71 72 74 75 75 75
49 46 51 51 51 46 43 38 36 42 48 42 42 39 44 47 47 47 46 46 47 51 50 51 52 53 53 61 65 66 68 67 67 66 66 66 65 69 71 72 73 74 74 74
46 51 52 50 49 44 42 36 35 34 44 42 39 35 36 41 46 48 47 47 47 47 47 49 49 50 51 51 56 60 63 65 66 66 66 65 67 67 68 70 71 73 74 74
48 53 48 48 47 47 39 50 45 39 36 34 37 30 33 35 38 42 42 42 44 46 47 48 49 49 48 49 52 54 56 57 59 63 63 63 65 64 68 69 70 71 73 73
47 47 46 45 47 49 45 51 46 41 38 39 35 33 33 37 35 35 39 42 44 46 46 46 47 48 48 49 49 51 53 54 55 56 56 60 61 62 63 63 64 65 65 64
49 54 49 49 50 51 52 50 47 45 39 32 33 33 32 32 33 34 39 43 45 46 46 48 49 49 48 48 48 50 51 52 52 54 54 53 53 57 58 58 58 57 58 58
48 48 52 50 47 53 50 46 34 31 33 30 41 35 32 36 38 38 40 43 45 46 46 47 47 47 48 47 47 49 49 49 53 52 53 52 52 52 53 54 54 55 55 55
39 38 46 50 46 42 44 43 35 25 29 32 40 29 33 41 42 43 44 45 46 47 46 46 48 48 48 47 47 47 48 48 49 52 52 52 53 52 52 52 53 54 53 53
39 40 50 48 48 47 44 40 44 37 33 34 36 38 43 47 47 48 48 48 47 47 48 47 49 49 48 47 47 46 47 47 48 48 50 51 52 51 52 52 52 51 52 52
43 35 45 48 50 48 45 47 37 40 28 27 32 34 35 41 44 47 47 48 48 50 49 50 49 50 51 51 51 51 49 47 46 47 48 49 49 51 51 51 51 51 52 52
45 40 41 45 42 38 43 42 42 41 38 31 29 33 46 44 45 45 46 48 48 49 49 49 50 51 53 52 51 51 51 51 50 50 50 50 49 50 51 51 52 51 52 53
45 39 32 39 45 45 43 40 40 35 33 37 35 34 49 48 48 48 47 48 50 51 50 51 51 52 52 52 52 52 50 51 50 51 51 50 51 51 51 51 51 52 51 52
44 33 29 32 39 43 40 41 41 42 41 33 32 35 49 49 48 49 48 49 50 51 52 52 52 52 51 51 51 52 51 51 51 52 52 52 53 52 51 52 51 51 51 51
44 36 33 31 34 38 35 39 41 39 33 36 38 37 42 45 46 48 48 50 50 51 51 52 51 51 52 52 51 52 51 51 51 52 52 51 51 52 53 53 51 51 51 51
42 30 33 37 38 37 37 37 39 36 40 35 40 41 44 47 48 49 50 50 50 50 51 50 50 50 52 51 52 52 53 51 52 51 50 49 50 51 51 51 50 49 49 49
42 31 31 28 37 35 29 36 39 39 39 40 40 42 52 53 53 49 49 49 49 49 50 50 51 50 49 49 49 51 50 49 51 50 48 48 49 50 49 49 49 48 47 47
37 32 28 29 31 27 24 31 38 40 43 44 37 46 50 47 47 48 49 50 49 49 49 49 50 50 49 48 48 47 48 49 48 47 48 47 47 47 47 48 48 47 47 47
31 30 29 28 24 22 35 41 40 41 45 46 43 46 48 48 50 51 52 51 49 50 50 51 50 51 50 49 49 48 48 48 47 46 45 45 44 44 44 45 45 46 46 46
40 36 27 25 26 32 39 37 37 36 39 46 45 46 48 49 48 47 51 53 51 51 50 50 50 48 49 49 48 46 47 47 46 44 43 42 41 40 39 39 41 41 43 41
36 37 32 23 23 22 37 40 43 43 31 47 47 45 44 44 38 45 50 51 50 50 49 49 49 48 48 49 46 44 45 44 44 41 39 39 38 38 41 40 39 38 38 37
25 27 25 26 26 31 43 41 44 29 36 47 48 47 45 42 48 51 51 49 49 48 48 49 49 47 46 44 43 41 43 43 42 40 38 37 37 37 39 39 38 37 37 36
27 25 24 27 24 21 43 39 36 43 45 45 48 48 46 46 45 46 48 48 48 48 46 44 44 42 43 42 40 40 41 41 40 38 37 35 34 34 35 33 34 33 36 34
28 37 31 32 33 41 44 44 47 46 46 45 46 47 48 44 46 47 48 48 48 46 41 41 42 40 42 41 38 36 39 38 35 31 31 32 32 33 33 33 33 34 34 34
34 41 33 31 41 40 42 45 44 46 47 47 49 48 47 46 47 43 41 41 41 41 40 39 38 38 38 39 35 37 37 34 28 31 33 33 32 33 33 34 34 33 34 33
39 36 33 32 38 39 42 44 46 44 45 44 44 44 46 45 41 41 40 40 40 39 38 36 34 34 35 35 35 34 33 29 30 30 32 34 34 34 35 34 36 34 36 36
38 37 33 34 44 44 47 45 46 42 41 44 42 40 41 42 41 40 40 40 39 36 34 32 31 30 33 33 31 30 28 27 26 31 33 36 36 37 36 36 37 37 36 37
MSLP
1016.41 1016.11 1015.58 1015.70 1016.00 1016.50 1016.54 1016.17 1015.55 1014.75 1014.33 1014.74 1014.16 1013.26 1013.76 1013.11 1013.11 1012.81 1012.58 1012.56 1012.42 1011.94 1011.78 1011.07 1010.13 1009.58 1009.79 1010.20 1010.41 1010.57 1010.81 1011.29 1011.80 1012.18 1012.82 1013.38 1013.64 1013.72 1013.78 1013.77 1013.95 1013.95 1014.24 1014.40
1015.98 1015.25 1015.52 1015.73 1015.61 1015.76 1015.97 1016.04 1015.69 1015.09 1014.79 1015.25 1014.64 1015.04 1014.84 1014.57 1014.56 1014.58 1014.31 1013.80 1013.50 1012.90 1012.19 1012.24 1011.31 1010.89 1011.27 1010.66 1010.63 1010.67 1010.85 1011.42 1011.85 1012.24 1012.63 1013.10 1013.25 1013.49 1013.41 1013.45 1013.53 1013.74 1013.96 1014.12
1015.37 1014.97 1015.38 1015.19 1014.90 1015.11 1015.26 1015.63 1015.78 1015.78 1015.15 1015.42 1015.76 1016.02 1015.87 1016.08 1015.95 1015.66 1015.18 1015.14 1014.15 1013.95 1013.76 1012.33 1011.94 1011.76 1011.95 1012.15 1011.96 1011.36 1011.22 1011.58 1011.97 1012.26 1012.59 1013.02 1013.09 1013.36 1013.23 1013.35 1013.41 1013.52 1013.55 1013.74
1015.42 1015.12 1015.30 1014.98 1014.55 1014.77 1014.45 1014.36 1014.93 1015.12 1015.27 1015.06 1016.19 1016.15 1016.66 1016.96 1016.89 1016.33 1016.29 1015.90 1015.58 1015.26 1015.87 1012.90 1012.35 1013.14 1013.10 1013.36 1013.29 1012.76 1012.15 1012.38 1012.49 1012.39 1012.57 1012.84 1012.93 1013.08 1012.89 1013.00 1013.30 1013.37 1013.31 1013.48
1015.27 1015.29 1015.27 1014.87 1014.56 1014.76 1013.98 1013.97 1014.11 1014.62 1014.75 1014.90 1015.75 1016.28 1017.28 1017.45 1017.27 1017.54 1017.57 1016.90 1016.98 1015.30 1013.85 1014.47 1013.59 1013.50 1013.68 1014.21 1014.82 1014.51 1014.09 1013.47 1013.38 1013.17 1013.15 1013.05 1013.11 1013.33 1013.29 1013.63 1013.80 1014.02 1014.15 1014.37
1015.79 1015.91 1015.80 1015.03 1014.63 1014.19 1013.92 1013.14 1013.36 1013.89 1014.26 1014.40 1015.89 1016.39 1017.17 1018.08 1018.41 1017.81 1018.00 1017.29 1016.53 1014.90 1015.25 1015.01 1014.16 1013.82 1014.49 1015.02 1015.77 1015.81 1015.64 1014.82 1014.47 1014.41 1014.08 1013.92 1014.10 1014.14 1013.96 1014.28 1014.42 1014.72 1014.61 1014.73
1015.22 1015.03 1015.30 1015.51 1014.29 1013.60 1013.59 1012.69 1012.65 1013.29 1013.22 1014.54 1015.25 1016.13 1017.77 1018.32 1018.56 1018.12 1017.83 1017.24 1016.65 1016.31 1016.47 1015.56 1014.55 1014.89 1015.30 1016.11 1016.57 1016.98 1016.19 1016.59 1015.55 1015.51 1015.26 1015.01 1015.15 1015.12 1015.45 1015.15 1015.10 1015.33 1015.54 1015.64
1015.51 1015.10 1015.43 1015.42 1015.17 1014.79 1014.21 1013.97 1013.91 1013.99 1013.88 1014.48 1014.97 1016.51 1017.63 1018.17 1018.16 1018.14 1017.76 1016.94 1016.68 1016.79 1016.34 1016.05 1016.49 1016.72 1015.98 1016.64 1016.66 1017.22 1017.04 1016.11 1016.55 1016.51 1016.41 1015.63 1016.29 1015.61 1015.75 1015.71 1015.90 1016.43 1016.16 1016.37
1016.09 1015.37 1015.35 1015.72 1015.56 1015.32 1014.41 1014.25 1015.06 1014.72 1015.06 1014.58 1015.26 1016.24 1017.02 1017.39 1017.33 1017.54 1017.39 1017.16 1017.06 1016.67 1015.96 1016.35 1017.09 1017.22 1017.54 1017.28 1017.61 1018.00 1017.42 1016.65 1017.21 1016.96 1016.74 1016.93 1016.34 1016.06 1015.97 1016.92 1016.33 1016.18 1016.21 1016.16
1017.62 1016.71 1016.00 1015.74 1015.74 1015.64 1015.34 1015.36 1014.94 1014.75 1014.54 1014.33 1015.16 1015.59 1016.13 1016.89 1017.19 1017.50 1017.67 1017.24 1016.77 1016.68 1016.59 1017.33 1017.73 1017.65 1017.31 1017.84 1017.77 1017.92 1018.21 1017.55 1017.78 1017.01 1017.55 1016.77 1016.13 1016.43 1016.86 1017.01 1016.66 1017.14 1016.93 1016.49
1018.26 1017.96 1016.66 1016.23 1016.08 1015.98 1015.62 1015.35 1015.27 1015.36 1015.16 1014.52 1014.52 1015.51 1016.19 1016.64 1017.22 1017.49 1017.82 1017.90 1017.70 1017.73 1017.99 1018.20 1018.14 1018.17 1018.08 1018.28 1018.59 1019.00 1018.75 1018.14 1017.95 1017.94 1017.80 1017.89 1017.50 1017.23 1017.84 1018.01 1017.34 1017.72 1017.37 1017.03
1019.28 1019.03 1017.81 1017.10 1017.17 1017.00 1016.69 1016.31 1016.10 1015.54 1015.30 1015.06 1014.95 1015.63 1016.25 1016.92 1017.34 1017.66 1017.89 1018.22 1018.26 1018.33 1018.57 1018.54 1018.47 1018.34 1018.46 1018.62 1018.85 1018.98 1018.62 1018.23 1018.21 1018.39 1018.01 1017.85 1017.86 1017.59 1017.70 1018.11 1017.95 1018.07 1017.38 1016.88
1019.61 1019.55 1018.79 1018.04 1017.94 1017.51 1016.95 1016.88 1016.73 1016.34 1015.79 1015.31 1015.01 1015.45 1016.36 1016.89 1017.59 1017.85 1018.21 1018.73 1018.76 1018.63 1018.54 1018.50 1018.82 1019.20 1019.38 1019.37 1019.17 1018.93 1018.80 1018.76 1018.64 1018.47 1017.97 1017.68 1017.54 1017.35 1017.57 1017.34 1017.53 1017.33 1016.92 1017.22
1020.14 1020.61 1019.91 1018.82 1018.55 1018.27 1017.70 1017.20 1017.01 1016.65 1015.91 1015.06 1014.74 1015.38 1016.03 1016.71 1017.21 1018.03 1018.42 1018.46 1018.61 1018.94 1019.17 1019.18 1019.39 1019.51 1019.58 1019.52 1019.72 1019.59 1019.50 1019.32 1019.26 1018.86 1018.59 1018.59 1018.45 1018.29 1018.17 1018.06 1018.23 1018.48 1018.31 1018.15
1020.45 1020.64 1020.69 1020.16 1019.73 1019.21 1018.42 1017.79 1017.32 1016.74 1015.98 1015.44 1014.73 1014.60 1015.27 1016.00 1016.78 1017.56 1018.34 1018.97 1019.20 1019.34 1019.49 1019.75 1019.78 1019.86 1019.88 1020.05 1020.12 1020.05 1019.95 1019.98 1019.82 1019.40 1019.39 1019.39 1019.03 1018.89 1018.78 1018.81 1018.73 1018.69 1018.47 1018.63
1020.76 1020.91 1021.30 1020.80 1020.12 1019.82 1018.98 1017.97 1017.28 1016.84 1016.25 1015.60 1015.14 1014.58 1014.89 1015.87 1016.58 1017.65 1018.36 1018.81 1019.18 1019.61 1019.81 1019.95 1020.21 1020.40 1020.64 1020.84 1020.74 1020.56 1020.38 1020.04 1019.84 1019.92 1019.84 1019.62 1019.49 1019.32 1019.33 1019.25 1019.26 1019.22 1019.25 1019.29
1021.05 1021.50 1021.60 1020.84 1020.78 1020.25 1018.97 1016.97 1016.35 1016.14 1015.68 1015.10 1014.77 1014.35 1015.15 1016.13 1016.77 1017.40 1018.11 1018.62 1019.11 1019.50 1019.98 1020.37 1020.50 1020.70 1020.90 1021.04 1021.19 1021.08 1020.92 1020.59 1020.23 1020.12 1020.06 1019.94 1019.82 1019.64 1019.46 1019.36 1019.23 1019.26 1019.19 1019.32
1021.46 1021.96 1022.01 1021.52 1021.25 1019.66 1017.16 1016.61 1016.22 1015.75 1015.39 1015.22 1015.15 1015.07 1015.47 1016.04 1016.77 1017.49 1018.17 1018.72 1019.22 1019.59 1019.85 1020.05 1020.32 1020.44 1020.64 1021.04 1021.17 1021.14 1021.01 1020.75 1020.70 1020.80 1020.54 1020.39 1020.20 1019.93 1019.81 1019.59 1019.55 1019.47 1019.52 1019.51
1021.73 1021.91 1022.14 1021.90 1020.64 1018.29 1016.38 1016.54 1016.09 1015.58 1015.02 1014.97 1015.02 1015.40 1015.83 1016.50 1017.29 1017.88 1018.35 1019.01 1019.45 1020.00 1020.35 1020.51 1020.69 1020.96 1021.11 1021.30 1021.44 1021.42 1021.09 1021.13 1021.14 1021.19 1021.10 1020.90 1020.85 1020.51 1020.26 1020.04 1019.97 1019.88 1019.82 1019.72
1022.15 1022.12 1021.83 1021.89 1020.54 1018.15 1016.17 1016.14 1016.17 1015.96 1014.96 1014.26 1014.82 1015.48 1016.23 1016.93 1017.21 1017.28 1018.39 1019.20 1019.77 1020.22 1020.61 1020.97 1021.27 1021.60 1021.82 1021.75 1021.89 1021.80 1021.54 1021.60 1021.46 1021.46 1021.40 1021.24 1021.11 1020.90 1020.41 1020.06 1019.85 1019.98 1020.18 1020.36
1021.98 1022.10 1021.33 1020.94 1019.98 1017.47 1015.85 1016.20 1016.50 1015.98 1014.66 1013.96 1014.54 1015.30 1016.11 1016.65 1017.04 1017.06 1018.22 1019.21 1019.99 1020.54 1020.91 1021.21 1021.43 1021.61 1021.71 1021.70 1021.51 1021.57 1021.74 1021.77 1021.71 1021.75 1021.70 1021.46 1021.38 1021.23 1020.79 1020.46 1020.18 1019.93 1019.94 1020.21
1020.06 1020.43 1020.38 1020.40 1019.69 1017.72 1016.05 1016.64 1016.07 1014.95 1014.60 1014.64 1015.03 1015.61 1016.44 1017.04 1017.54 1018.06 1018.69 1019.40 1020.10 1020.60 1020.99 1021.36 1021.42 1021.59 1021.68 1021.81 1021.89 1021.90 1021.85 1021.71 1021.57 1021.41 1021.27 1021.24 1021.39 1021.43 1021.20 1021.03 1020.61 1020.33 1020.11 1020.02
1018.87 1017.41 1017.85 1018.06 1016.64 1015.85 1015.68 1015.31 1015.26 1015.17 1014.97 1015.17 1015.50 1016.21 1016.73 1017.42 1017.84 1018.49 1019.10 1019.66 1020.32 1020.78 1021.11 1021.46 1021.60 1021.72 1021.77 1021.88 1021.96 1022.07 1021.80 1021.72 1021.76 1021.77 1021.42 1021.32 1021.08 1020.94 1020.86 1021.02 1021.05 1020.90 1020.58 1020.41
1017.71 1017.13 1017.07 1016.95 1015.12 1015.37 1015.40 1015.50 1015.76 1015.59 1015.34 1015.50 1015.71 1016.38 1016.97 1017.47 1018.08 1018.81 1019.53 1020.29 1020.77 1021.04 1021.33 1021.73 1021.96 1021.95 1021.88 1021.82 1021.82 1021.90 1021.84 1021.87 1022.01 1021.83 1021.40 1021.06 1020.92 1020.43 1020.20 1020.09 1019.93 1020.03 1020.18 1020.14
1015.88 1016.68 1016.09 1015.30 1014.94 1015.34 1015.11 1015.04 1015.16 1015.72 1015.93 1015.95 1016.28 1016.72 1017.29 1017.78 1018.48 1019.09 1019.75 1020.33 1020.74 1021.20 1021.64 1021.89 1021.83 1021.88 1021.97 1021.90 1022.01 1022.13 1022.06 1021.94 1021.84 1021.50 1021.05 1020.65 1020.40 1020.14 1019.96 1019.68 1019.23 1019.06 1018.67 1018.73
1014.96 1014.57 1014.48 1013.14 1013.38 1013.76 1013.53 1013.84 1014.68 1015.43 1015.93 1016.06 1016.50 1017.29 1017.81 1018.11 1018.61 1019.29 1019.85 1020.20 1020.73 1021.27 1021.51 1021.76 1022.08 1022.29 1022.24 1022.12 1022.13 1022.10 1021.94 1021.82 1021.85 1021.54 1021.03 1020.62 1020.26 1019.81 1019.40 1019.03 1018.50 1018.36 1018.05 1018.13
Wind_Speed
2 6 4 9 8 8 11 15 17 16 10 3 12 9 4 8 13 14 12 11 10 8 9 12 13 1 5 8 9 13 12 10 7 7 6 6 6 6 7 6 9 9 9 9
5 6 6 7 8 6 9 11 9 10 4 3 11 6 9 11 13 12 12 13 10 9 11 7 13 15 16 2 6 6 8 8 7 6 6 4 5 8 7 6 8 9 10 10
6 5 6 7 8 8 7 4 5 5 5 8 6 1 6 9 12 11 15 13 11 11 9 11 17 18 16 17 13 6 5 6 6 6 4 3 5 4 5 6 6 7 10 9
6 2 6 8 6 7 7 4 11 8 4 2 2 1 4 5 10 16 16 14 11 10 3 14 19 21 18 18 16 13 12 9 6 1 6 8 7 7 6 6 4 4 3 6
4 6 9 8 5 9 7 16 11 4 3 3 8 3 3 4 8 8 11 11 6 5 18 12 18 18 18 17 16 14 12 12 11 10 9 2 2 1 2 1 1 2 4 5
11 4 4 5 13 8 12 10 3 6 3 2 9 6 4 7 6 7 7 6 8 15 14 7 14 17 15 15 14 13 13 12 10 10 10 10 11 7 5 5 3 2 3 3
4 7 2 3 9 3 13 12 2 4 1 4 9 5 3 10 8 9 11 12 7 7 8 11 15 15 14 13 11 9 12 11 10 9 9 9 9 8 7 6 5 5 4 2
4 4 4 7 3 4 8 5 4 5 5 4 7 8 8 10 7 6 7 6 8 7 6 13 12 10 12 9 10 8 8 9 10 7 7 8 5 4 4 6 5 3 2 1
4 4 0 0 2 5 5 4 2 4 1 2 3 3 3 7 9 10 10 10 11 11 13 11 10 9 7 8 8 7 10 10 8 8 8 6 7 7 6 3 1 1 3 3
2 7 2 2 3 3 4 4 1 3 4 2 4 3 5 6 7 9 10 12 13 13 14 11 8 9 8 7 5 6 6 6 9 11 8 8 10 9 7 5 5 4 2 2
3 3 0 4 4 4 1 1 2 3 4 4 1 4 5 6 5 7 8 10 11 12 10 9 9 9 10 9 7 5 5 6 5 6 6 6 4 4 3 2 3 3 3 3
3 5 5 2 1 1 1 2 3 3 2 3 4 5 5 7 6 6 7 7 8 9 8 8 9 9 10 9 8 7 7 9 7 5 3 4 4 4 3 2 1 1 2 5
1 1 4 2 3 3 1 1 2 4 3 3 3 6 6 8 8 6 6 5 6 7 9 9 9 9 8 8 8 9 10 10 8 7 7 6 6 6 5 6 6 7 8 7
1 3 6 5 4 3 3 2 2 4 3 1 4 9 12 11 10 9 7 4 5 6 7 8 8 9 9 8 8 8 8 9 8 8 7 6 6 6 5 5 4 4 4 5
3 3 3 9 7 6 6 7 7 6 5 5 3 8 14 14 13 11 8 6 5 5 7 7 8 8 9 9 9 9 9 8 8 8 7 8 7 5 4 3 3 3 4 3
4 2 2 4 6 7 6 11 10 10 9 8 4 5 11 12 11 11 10 8 6 6 6 6 7 7 7 7 8 8 9 9 9 8 7 7 8 6 4 3 2 2 1 1
3 3 2 3 4 5 7 13 15 8 8 9 8 7 13 13 13 12 9 6 6 5 4 4 4 4 4 5 5 6 6 7 7 8 8 8 8 7 6 5 4 4 3 3
4 3 1 3 3 6 2 2 1 12 9 11 1 8 15 13 11 10 9 8 5 3 4 4 5 5 5 4 4 4 4 5 5 5 6 7 7 7 7 6 4 3 2 2
4 4 2 3 4 8 10 7 6 8 11 12 11 10 11 11 10 8 8 5 5 3 1 1 3 5 5 5 6 7 6 5 5 5 6 6 6 6 5 4 4 4 4 3
3 5 6 2 5 5 2 5 3 4 7 15 13 14 16 14 9 8 12 8 6 2 2 1 1 2 3 4 4 5 5 5 4 4 5 5 5 6 6 5 5 3 2 3
4 3 9 7 6 8 4 8 6 6 1 14 15 15 15 10 3 12 11 7 3 2 2 0 1 2 3 3 3 4 5 5 5 5 5 4 4 4 4 3 2 2 2 2
11 10 6 5 6 12 10 7 8 2 3 9 10 12 12 6 8 9 8 6 5 3 3 3 2 1 1 1 2 4 4 4 4 3 4 3 4 4 4 4 4 2 3 3
8 7 7 10 7 2 13 2 7 2 5 7 9 9 12 9 8 8 6 5 4 2 1 0 2 4 4 2 1 4 4 5 5 5 5 5 5 4 3 4 4 3 4 4
7 6 4 3 8 14 9 10 4 4 5 7 7 11 9 9 8 7 5 4 3 2 1 0 3 3 3 3 2 3 6 4 3 7 7 5 5 5 4 3 5 5 5 6
5 12 8 6 7 4 11 11 11 7 3 5 6 6 8 7 7 6 6 5 4 2 2 2 1 3 5 5 4 3 5 3 5 5 6 7 5 6 6 6 6 6 8 9
9 9 9 8 8 10 4 14 13 12 10 9 8 5 3 6 8 6 5 4 3 4 2 0 2 3 5 5 4 4 4 2 3 6 5 5 6 6 5 6 8 14 17 11
Wind_Direction
160 270 335 337 339 317 293 302 307 314 323 281 250 221 273 29 23 7 360 4 345 24 7 8 16 201 164 182 191 189 176 186 183 179 170 181 201 215 213 215 221 224 218 213
217 257 10 323 313 303 311 295 307 306 340 249 54 43 41 40 29 23 9 9 0 27 22 25 50 45 26 44 214 167 183 180 180 174 180 196 175 219 218 213 221 219 223 222
284 358 332 315 317 341 328 246 297 279 289 72 7 59 356 11 2 21 26 1 12 25 12 64 55 49 37 21 2 12 185 181 185 179 173 186 221 235 208 222 218 221 228 234
280 316 309 318 317 344 314 352 326 326 256 324 12 315 29 336 356 18 15 9 354 40 297 50 63 56 42 23 5 13 37 34 33 142 179 185 198 198 204 216 217 216 231 254
53 312 326 309 353 326 281 325 306 309 344 238 8 313 26 334 359 1 13 14 275 47 51 22 67 60 52 35 13 5 14 37 28 39 29 340 162 98 79 84 61 71 82 64
277 326 279 310 308 283 290 294 228 237 242 157 360 333 53 3 329 315 326 305 357 40 44 353 60 59 54 44 23 8 5 26 29 35 41 44 35 9 86 51 59 41 70 57
253 227 299 287 313 156 341 339 242 227 347 37 356 26 47 336 350 320 307 315 350 56 36 32 39 48 49 40 42 1 14 1 31 31 38 60 47 47 4 46 46 30 15 26
324 202 344 16 22 317 320 353 10 326 350 13 22 12 9 352 7 334 284 29 18 51 48 41 36 36 58 44 40 3 353 11 19 8 28 54 48 74 52 29 18 12 73 288
309 229 232 156 324 306 356 41 7 297 297 248 54 137 115 22 35 47 38 50 46 46 43 50 37 37 30 37 24 358 352 6 4 14 21 14 37 33 51 300 86 40 25 4
38 291 75 345 244 191 326 343 188 203 302 9 94 60 81 40 30 34 35 36 37 43 51 43 44 41 36 39 33 357 329 6 340 355 347 359 21 19 20 2 16 327 335 23
313 274 84 253 28 21 72 49 333 280 318 332 152 101 38 85 52 49 44 42 43 49 50 52 50 45 50 42 38 20 4 4 5 342 339 338 3 28 356 334 33 2 351 12
39 316 282 348 21 349 344 21 293 291 70 18 326 111 116 102 92 86 71 49 49 50 48 51 52 46 42 36 30 29 17 17 3 329 324 343 342 359 16 7 30 254 68 42
107 236 289 214 178 196 323 22 307 279 259 224 262 129 141 132 132 116 96 75 53 44 41 41 46 48 47 40 30 24 22 14 6 343 346 345 351 358 358 10 15 13 21 23
287 309 269 312 357 343 273 261 276 288 269 152 251 135 164 164 159 150 140 118 68 53 49 49 41 34 34 36 31 28 29 22 4 9 15 11 4 357 2 14 19 19 24 28
250 258 251 284 281 272 273 272 267 254 266 256 69 193 176 174 168 162 146 138 125 85 60 50 42 31 24 21 21 20 25 23 9 21 18 6 356 351 352 357 14 18 28 30
177 231 322 267 248 259 272 265 257 250 254 257 255 205 161 164 152 153 160 156 128 102 74 43 34 32 29 23 12 8 5 5 8 15 17 11 3 4 357 355 359 11 39 54
182 178 181 254 325 300 257 239 218 216 212 215 200 187 165 166 172 165 165 160 128 96 63 45 35 33 18 14 359 3 351 353 8 9 6 7 5 6 4 351 348 346 353 359
152 155 220 302 292 244 70 114 347 230 225 218 166 166 174 172 163 157 158 156 127 54 17 4 0 0 9 352 345 339 347 0 0 3 2 1 358 360 356 353 349 352 341 319
228 180 222 253 235 313 267 200 180 175 237 219 206 170 171 140 138 166 165 160 129 147 158 340 343 326 330 328 346 336 339 348 339 355 353 352 352 342 343 354 347 345 327 342
203 262 241 160 256 257 34 151 163 153 263 189 185 171 161 161 178 180 169 172 172 145 55 18 254 266 286 360 338 324 330 324 336 349 339 336 337 328 333 340 344 354 325 317
162 202 220 217 253 280 200 146 167 172 311 166 176 171 163 174 84 126 147 152 122 117 152 302 298 349 346 331 339 315 310 312 333 318 311 305 300 291 285 282 252 265 291 300
177 179 186 186 231 259 145 128 209 49 101 153 180 165 164 124 123 133 141 138 148 144 73 47 354 328 290 311 328 314 310 318 321 309 298 304 300 300 307 306 292 278 218 196
213 204 177 206 216 107 190 5 196 309 159 166 170 166 161 144 150 151 147 144 124 85 94 109 296 312 306 276 347 306 302 335 328 305 275 264 257 244 229 267 291 290 257 246
235 198 215 147 227 230 211 224 252 226 196 155 155 160 155 160 160 147 123 150 157 173 189 126 291 291 314 339 342 299 324 319 309 293 297 288 275 272 233 217 215 230 242 242
178 166 182 240 258 285 241 228 208 200 193 142 125 147 168 146 154 148 170 176 188 185 172 179 318 334 319 323 318 295 291 282 307 302 301 299 283 275 279 252 241 226 227 213
183 186 198 226 186 220 215 199 188 176 189 176 152 142 177 165 156 164 181 181 174 164 177 59 238 240 265 266 267 253 259 288 305 306 295 294 296 289 273 271 278 237 244 242